Tracking 27420 objects as of 28-May-2023
HD Live streaming from Space Station
objects crossing your sky now

STARLINK-6157

Track STARLINK-6157 now!
10-day predictions
STARLINK-6157 is classified as:


NORAD ID: 56379
Int'l Code: 2023-061F
Perigee: 405.0 km
Apogee: 406.9 km
Inclination: 43.0 °
Period: 92.5 minutes
Semi major axis: 6776 km
RCS: Unknown
Launch date: May 4, 2023
Source: United States (US)
Launch site: AIR FORCE EASTERN TEST RANGE (AFETR)
Your satellite tracking list
Your tracking list is empty




NASA's NSSDC Master Catalog

Two Line Element Set (TLE):
1 56379U 23061F   23148.58334491 -.00939747  00000-0 -14443-1 0  9995
2 56379  42.9982 325.6351 0001426 265.2280 143.6408 15.56159596  4113
Source of the keplerian elements: AFSPC